[[{"header":{"parameterUnit":"m.s-1","parameterCategory":1,"la1":30.2991,"la2":30.254,"lo1":-89.0895,"lo2":-89.0444,"dy":0.0017,"dx":0.0017,"nx":28,"ny":28,"refTime":"2024-05-30T21:00:00:Z","depth":0,"parameterNumber":2,"parameterNumberName":"U-component_of_WINDS"},"data":[0,0,0,0,0,0,0,0,0,0,0,0,0,0,0,0,0,0,0,0,0,0,0,0,0,0,0,0,0,0,0,0,0,0,0,0,0,0,0,0,0,0,0,0,0,0,0,0,0,0,0,0,0,0,0,0,0,0,-3.515,-3.5151,0,-3.5284,-3.5286,-3.5288,-3.5276,-3.5274,-3.5272,-3.527,-3.5405,-3.541,-3.5416,0,0,0,0,0,0,0,0,0,0,0,0,0,-3.488,-3.4885,-3.515,-3.5152,-3.5153,-3.5284,-3.5286,-3.5288,-3.5276,-3.5274,-3.5272,-3.5269,-3.5403,-3.541,-3.5416,0,0,0,0,0,0,0,0,0,0,0,0,0,-3.5004,-3.4887,-3.515,-3.5163,-3.5166,-3.5284,-3.5286,-3.5288,-3.5277,-3.5274,-3.5271,-3.5268,-3.5401,-3.5409,-3.5417,-3.5529,0,0,-3.5442,-3.5446,0,0,0,0,0,0,0,0,-3.4997,-3.5014,-3.516,-3.5163,-3.5166,-3.526,-3.5241,-3.5369,-3.5278,-3.5235,-3.527,-3.5267,-3.5359,-3.5371,-3.5403,-3.5536,-3.5541,-3.5443,-3.5448,-3.5452,-3.5454,0,0,0,0,0,0,0,-3.4989,-3.5008,-3.5203,-3.5162,-3.5166,-3.5162,-3.5176,-3.5265,-3.5312,-3.5238,-3.5238,-3.5254,-3.536,-3.5395,-3.5406,-3.5543,-3.5443,-3.545,-3.5455,-3.5459,-3.5773,-3.5777,0,0,0,0,0,0,-3.4977,-3.5001,-3.5199,-3.5207,-3.5072,-3.5169,-3.5185,-3.5233,-3.5311,-3.532,-3.5256,-3.5253,-3.5382,-3.5396,-3.541,-3.5545,-3.5452,-3.5459,-3.5464,-3.577,-3.5774,-3.5778,0,0,0,0,0,0,-3.4972,-3.4995,-3.5193,-3.5104,-3.5129,-3.5177,-3.5231,-3.5237,-3.5272,-3.5325,-3.5333,-3.5283,-3.538,-3.5399,-3.55,-3.555,-3.5463,-3.5471,-3.5766,-3.5771,-3.5776,-3.5816,0,0,0,0,0,0,-3.4964,-3.4993,-3.5037,-3.5105,-3.5134,-3.5281,-3.5234,-3.5242,-3.5286,-3.5283,-3.5352,-3.5361,-3.5379,-3.5487,-3.5508,-3.5559,-3.5477,-3.5762,-3.5768,-3.5774,-3.5811,-3.5822,-3.5832,0,0,0,0,0,-3.4954,-3.5042,-3.5039,-3.5063,-3.519,-3.5284,-3.53,-3.5321,-3.529,-3.5334,-3.5368,-3.5359,-3.5542,-3.5498,-3.5521,-3.5575,-3.5759,-3.5767,-3.5774,-3.5806,-3.582,-3.5832,0,0,0,0,0,0,-3.4977,-3.5051,-3.5049,-3.5162,-3.5217,-3.5282,-3.5338,-3.5335,-3.5399,-3.5393,-3.5415,-3.5431,-3.5532,-3.5564,-3.5514,-3.5687,-3.5646,-3.5658,-3.5662,-3.5676,-3.5686,-3.5675,-3.5484,0,0,0,0,0,-3.4996,-3.5067,-3.5128,-3.5222,-3.525,-3.5289,-3.5331,-3.5342,-3.54,-3.5423,-3.5464,-3.552,-3.559,-3.5635,-3.5702,-3.5816,-3.583,-3.5865,-3.5876,-3.5884,-3.5894,-3.5955,-3.5971,-3.5803,-3.5803,-3.5803,0,0,-3.5034,-3.5084,-3.5127,-3.5228,-3.5272,-3.5344,-3.5309,-3.5387,-3.544,-3.5434,-3.5531,-3.5564,-3.5628,-3.5735,-3.5784,-3.5765,-3.5944,-3.5894,-3.59,-3.5906,-3.5964,-3.598,-3.5994,-3.5808,-3.5808,-3.5807,0,0,-3.5141,-3.5186,-3.5268,-3.5314,-3.5381,-3.5407,-3.5426,-3.5493,-3.5514,-3.5613,-3.5609,-3.5673,-3.5793,-3.5838,-3.5877,-3.6001,-3.5993,-3.6022,-3.6077,-3.6136,-3.6149,-3.6161,-3.6203,-3.6218,-3.6032,-3.6032,-3.6032,0,-3.5179,-3.5289,-3.5311,-3.539,-3.5433,-3.5433,-3.5515,-3.5558,-3.5643,-3.5673,-3.5651,-3.5801,-3.5844,-3.5961,-3.5991,-3.6023,-3.6045,-3.6013,-3.6145,-3.6157,-3.6169,-3.6209,-3.6225,-3.6035,-3.6035,-3.6035,-3.6034,0,-3.5332,-3.5408,-3.5467,-3.555,-3.56,-3.5681,-3.5714,-3.5762,-3.5769,-3.5797,-3.5897,-3.5948,-3.6025,-3.6055,-3.6062,-3.6173,-3.6158,-3.6141,-3.6099,-3.6187,-3.6225,-3.6241,-3.6039,-3.6038,-3.6037,-3.6037,0,0,-3.5455,-3.555,-3.5571,-3.5608,-3.5682,-3.5741,-3.5821,-3.5898,-3.5938,-3.5997,-3.6064,-3.6166,-3.615,-3.6194,-3.6206,-3.6259,-3.6351,-3.6235,-3.6236,-3.6252,-3.6474,-3.6484,-3.6502,-3.6348,-3.6351,-3.6353,-3.6468,0,-3.5567,-3.5709,-3.5732,-3.5856,-3.5926,-3.5926,-3.5996,-3.6049,-3.6077,-3.6139,-3.6171,-3.6242,-3.6217,-3.6243,-3.6295,-3.6329,-3.6395,-3.6321,-3.6408,-3.6411,-3.6389,-3.6522,-3.6534,-3.6639,-3.6483,-3.6485,-3.6487,0,-3.5716,-3.578,-3.5912,-3.5976,-3.6006,-3.6068,-3.6139,-3.62,-3.6259,-3.6276,-3.6325,-3.6332,-3.6414,-3.637,-3.6483,-3.6432,-3.6469,-3.6491,-3.6496,-3.6502,-3.6452,-3.653,-3.6674,-3.6688,-3.6511,-3.651,-3.6508,0,-3.579,-3.5909,-3.6002,-3.6035,-3.6113,-3.6156,-3.619,-3.6247,-3.6291,-3.6354,-3.6382,-3.6453,-3.6491,-3.6546,-3.6571,-3.6537,-3.6681,-3.664,-3.6695,-3.6694,-3.6723,-3.672,-3.6872,-3.6751,-3.6751,-3.6751,-3.6751,0,-3.5911,-3.5991,-3.6036,-3.6093,-3.6183,-3.6208,-3.6295,-3.6328,-3.6379,-3.6441,-3.6447,-3.6506,-3.6537,-3.66,-3.662,-3.6709,-3.6727,-3.6741,-3.6745,-3.6739,-3.6737,-3.6762,-3.6754,-3.6755,-3.6754,-3.6753,-3.6753,0,-3.6007,-3.6041,-3.6143,-3.6208,-3.6227,-3.6289,-3.6345,-3.64,-3.6429,-3.6508,-3.6529,-3.6573,-3.6648,-3.6679,-3.677,-3.6784,-3.6885,-3.6885,-3.6865,-3.6865,-3.6918,-3.6912,-3.7089,-3.7112,-3.6978,-3.698,-3.6981,0,-3.6081,-3.6142,-3.6215,-3.6257,-3.6293,-3.6362,-3.6408,-3.6435,-3.6481,-3.6554,-3.66,-3.6675,-3.6736,-3.6855,-3.6895,-3.6964,-3.6964,-3.7022,-3.6975,-3.6966,-3.6962,-3.6957,-3.6962,-3.7029,-3.703,-3.7032,-3.7033,0,-3.6207,-3.6221,-3.6286,-3.6357,-3.6411,-3.6469,-3.6524,-3.6559,-3.6595,-3.6647,-3.6723,-3.6771,-3.6865,-3.6938,-3.701,-3.7045,-3.7044,-3.7048,-3.7063,-3.7057,-3.7042,-3.7048,-3.6885,-3.7043,-3.7042,-3.7041,-3.704,-3.704,-3.6293,-3.6347,-3.6406,-3.6478,-3.6523,-3.6575,-3.663,-3.6666,-3.673,-3.6809,-3.6821,-3.6902,-3.696,-3.7057,-3.7095,-3.7158,-3.7143,-3.7167,-3.7173,-3.7177,-3.7179,-3.7034,-3.7171,-3.7171,-3.7171,-3.7171,-3.7171,0,-3.6417,-3.6456,-3.6522,-3.66,-3.6657,-3.6653,-3.6715,-3.6762,-3.6833,-3.6888,-3.6948,-3.7035,-3.7107,-3.7153,-3.7224,-3.7266,-3.7268,-3.7284,-3.728,-3.7287,-3.719,-3.7167,-3.7282,-3.7282,-3.7281,-3.7281,-3.7281,-3.7281,-3.6489,-3.658,-3.66,-3.6713,-3.6751,-3.6831,-3.6866,-3.6914,-3.6957,-3.7054,-3.7114,-3.7144,-3.7194,-3.727,-3.7335,-3.7347,-3.7372,-3.7389,-3.7399,-3.7306,-3.7294,-3.7283,-3.7262,-3.7394,-3.7395,-3.7491,-3.7492,-3.7492]},{"header":{"parameterUnit":"m.s-1","parameterCategory":1,"la1":30.2991,"la2":30.254,"lo1":-89.0895,"lo2":-89.0444,"dy":0.0017,"dx":0.0017,"nx":28,"ny":28,"refTime":"2024-05-30T21:00:00:Z","depth":0,"parameterNumber":3,"parameterNumberName":"V-component_of_WINDS"},"data":[0,0,0,0,0,0,0,0,0,0,0,0,0,0,0,0,0,0,0,0,0,0,0,0,0,0,0,0,0,0,0,0,0,0,0,0,0,0,0,0,0,0,0,0,0,0,0,0,0,0,0,0,0,0,0,0,0,0,2.805,2.805,0,2.8038,2.8038,2.8037,2.7953,2.795,2.7948,2.7946,2.7934,2.7936,2.7937,0,0,0,0,0,0,0,0,0,0,0,0,0,2.8001,2.8002,2.805,2.805,2.805,2.8038,2.8038,2.8037,2.7953,2.795,2.7948,2.7946,2.7934,2.7936,2.7938,0,0,0,0,0,0,0,0,0,0,0,0,0,2.8009,2.8003,2.805,2.8006,2.8002,2.8038,2.8038,2.8037,2.7953,2.795,2.7947,2.7944,2.7933,2.7935,2.7938,2.8015,0,0,2.7945,2.7946,0,0,0,0,0,0,0,0,2.8009,2.8011,2.8013,2.8009,2.8005,2.7993,2.8016,2.803,2.7954,2.7972,2.7946,2.7943,2.7956,2.7957,2.7961,2.8014,2.8014,2.7945,2.7947,2.7948,2.7949,0,0,0,0,0,0,0,2.8008,2.8011,2.8045,2.8013,2.8008,2.7987,2.7985,2.8018,2.7982,2.797,2.7964,2.7964,2.7954,2.7959,2.796,2.8014,2.7945,2.7947,2.7949,2.795,2.8129,2.8132,0,0,0,0,0,0,2.8014,2.8011,2.8046,2.8045,2.7999,2.7991,2.7988,2.8,2.7981,2.7975,2.7966,2.796,2.7957,2.7958,2.796,2.8047,2.7948,2.795,2.7951,2.8125,2.8129,2.8133,0,0,0,0,0,0,2.8013,2.8018,2.8046,2.8026,2.8028,2.7995,2.8009,2.8002,2.8007,2.7978,2.7971,2.7978,2.7954,2.7956,2.8002,2.8046,2.7951,2.7953,2.8121,2.8127,2.8131,2.8225,0,0,0,0,0,0,2.8012,2.8018,2.8046,2.8027,2.803,2.8088,2.8012,2.8004,2.8011,2.8003,2.7988,2.7982,2.7952,2.7998,2.8004,2.8047,2.7955,2.8117,2.8124,2.813,2.8218,2.8232,2.8245,0,0,0,0,0,2.801,2.8074,2.8048,2.8053,2.8065,2.8091,2.8092,2.8055,2.8015,2.8044,2.8025,2.7983,2.8041,2.8004,2.8009,2.8054,2.8114,2.8122,2.8129,2.8211,2.8229,2.8245,0,0,0,0,0,0,2.8098,2.807,2.8042,2.8101,2.8099,2.8077,2.8111,2.8076,2.8085,2.8077,2.8031,2.8029,2.8081,2.8072,2.8032,2.8128,2.807,2.8079,2.8131,2.8148,2.8161,2.8161,2.7957,0,0,0,0,0,2.8125,2.8148,2.8122,2.8177,2.8177,2.8145,2.8155,2.8127,2.8123,2.8122,2.8107,2.8105,2.8123,2.8135,2.815,2.8217,2.8212,2.8251,2.8264,2.8276,2.8283,2.8317,2.8334,2.8157,2.8157,2.8157,0,0,2.8179,2.8167,2.8184,2.8194,2.8189,2.8215,2.8145,2.8174,2.8193,2.8126,2.8168,2.8157,2.8152,2.8209,2.8233,2.8203,2.8331,2.8285,2.8294,2.8296,2.8327,2.8343,2.8358,2.8162,2.8161,2.8161,0,0,2.8291,2.8284,2.8328,2.8325,2.8319,2.8297,2.8308,2.8291,2.8281,2.8323,2.8273,2.8295,2.8326,2.8324,2.8328,2.844,2.8401,2.8446,2.8517,2.8551,2.8565,2.8577,2.8616,2.863,2.8455,2.8455,2.8455,0,2.8359,2.8395,2.8356,2.8388,2.8394,2.8336,2.838,2.8379,2.8379,2.8384,2.8351,2.8389,2.8382,2.8436,2.8464,2.8469,2.8479,2.8447,2.8566,2.8578,2.8588,2.8625,2.864,2.846,2.846,2.8459,2.8459,0,2.8478,2.8504,2.8541,2.8541,2.8551,2.859,2.8556,2.8572,2.8544,2.8525,2.8568,2.8557,2.8568,2.858,2.8553,2.8631,2.8613,2.8574,2.8515,2.8611,2.8645,2.8659,2.8468,2.8466,2.8464,2.8463,0,0,2.8643,2.8622,2.8636,2.8635,2.8625,2.8644,2.868,2.8691,2.8704,2.8707,2.8735,2.8764,2.8728,2.8732,2.8704,2.8734,2.8823,2.8692,2.8691,2.8715,2.8907,2.8935,2.8952,2.8798,2.88,2.8802,2.8907,0,2.8749,2.8808,2.8775,2.8839,2.8862,2.8809,2.884,2.8837,2.8822,2.8839,2.8822,2.8842,2.8794,2.8796,2.8824,2.8806,2.886,2.8798,2.8823,2.8825,2.8824,2.8969,2.8999,2.9098,2.892,2.8922,2.8924,0,2.8879,2.8887,2.8954,2.8939,2.8947,2.8976,2.8983,2.9001,2.8997,2.8984,2.8989,2.8954,2.8989,2.8932,2.8979,2.8938,2.8946,2.8939,2.8942,2.8942,2.8879,2.8971,2.9129,2.9143,2.8944,2.8943,2.8941,0,2.8991,2.9018,2.9061,2.9062,2.9046,2.9068,2.9062,2.9055,2.9064,2.9071,2.9076,2.9088,2.9093,2.9103,2.9072,2.9034,2.9123,2.9064,2.9112,2.9113,2.9131,2.913,2.9291,2.9141,2.914,2.914,2.914,0,2.9111,2.9154,2.9111,2.9137,2.9183,2.9145,2.9192,2.9181,2.9175,2.9199,2.9154,2.9177,2.9136,2.9155,2.9132,2.9173,2.9177,2.9166,2.9159,2.9169,2.917,2.9173,2.9164,2.9144,2.9143,2.9142,2.9142,0,2.9242,2.9215,2.9259,2.924,2.9237,2.9272,2.9256,2.928,2.9262,2.9292,2.9297,2.9269,2.9289,2.926,2.9277,2.9262,2.9319,2.9302,2.932,2.9314,2.9363,2.9359,2.953,2.955,2.9388,2.939,2.9391,0,2.932,2.9351,2.9337,2.9349,2.9346,2.9367,2.9375,2.934,2.9351,2.9349,2.9373,2.9389,2.94,2.9435,2.9416,2.9429,2.9411,2.947,2.9413,2.9422,2.941,2.9408,2.941,2.9482,2.9483,2.9485,2.9486,0,2.946,2.9445,2.9459,2.9469,2.9481,2.9487,2.949,2.9503,2.9465,2.948,2.95,2.9509,2.9526,2.9543,2.9551,2.9545,2.951,2.9505,2.9516,2.9526,2.9534,2.9529,2.935,2.9501,2.9499,2.9498,2.9497,2.9497,2.9565,2.959,2.9584,2.9602,2.96,2.9604,2.9625,2.961,2.9626,2.9637,2.9616,2.9641,2.9637,2.9644,2.9642,2.9662,2.9636,2.9653,2.9657,2.9661,2.9668,2.9533,2.9664,2.9663,2.9663,2.9662,2.9662,0,2.9701,2.9695,2.9712,2.9717,2.9731,2.9697,2.9698,2.9712,2.9735,2.9734,2.9746,2.9769,2.9785,2.9768,2.9781,2.98,2.9784,2.9804,2.9802,2.9801,2.9691,2.9679,2.9817,2.9817,2.9817,2.9817,2.9817,2.9817,2.9774,2.9814,2.9799,2.9839,2.9832,2.9856,2.986,2.9864,2.9862,2.989,2.9903,2.9892,2.9885,2.9897,2.991,2.9905,2.9911,2.9937,2.9926,2.9824,2.9808,2.9794,2.9782,2.9939,2.994,3.0033,3.0034,3.0035]}]]